Location: Helds Island Access
(38.5526°N, 91.5997°W)
Time: 05:44:48
(UTC-05:00)

Daily predictions for brighter satellites

Satellite Brightness Start Highest point End
(mag) Time Altitude Azimuth Time Altitude Azimuth Time Altitude Azimuth
Cosmos 1331 Rocket 4.4 00:13:58 58° NNW 00:13:58 58° NNW 00:18:20 10° NNE
Meteor 1-19 Rocket 4.5 00:08:13 10° N 00:13:32 64° NE 00:13:32 64° NE
Cosmos 1821 Rocket 3.9 00:16:09 81° ENE 00:16:09 81° ENE 00:22:14 10° N
H-2A R/B 4.0 00:17:21 19° W 00:17:44 19° W 00:21:29 10° NW
USA 229 DEB 3.7 00:16:01 10° NW 00:23:07 72° WSW 00:23:13 71° SW
USA 229 3.7 00:16:07 10° NW 00:23:13 72° WSW 00:23:20 72° SW
Iridium 4 Rocket 3.9 00:24:04 10° N 00:29:22 70° NW 00:29:22 70° NW
Cosmos 2123 Rocket 4.1 00:26:42 10° N 00:32:36 70° NE 00:32:36 70° NE
Cosmos 1934 Rocket 4.0 00:36:52 75° NNW 00:36:52 75° NNW 00:42:27 10° N
Cosmos 2369 Rocket 3.0 00:43:16 42° NE 00:43:16 42° NE 00:47:08 10° NNE
ALOS 2 4.1 00:44:55 34° NNW 00:44:55 34° NNW 00:47:25 10° NNW
H-2A R/B 4.1 00:43:46 10° N 00:46:31 36° N 00:46:31 36° N
Lacrosse 5 rocket 4.2 01:02:21 11° NE 01:02:21 11° NE 01:02:32 10° NE
ATLAS 2AS CENTAUR R/B 4.4 00:55:39 10° NNW 01:02:49 33° NE 01:08:36 14° E
Lacrosse 5 3.2 01:06:21 36° NE 01:06:21 36° NE 01:09:20 10° NE
CZ-2C R/B 3.4 01:03:06 10° NNE 01:06:52 47° NE 01:06:52 47° NE
NOSS 3-1 (C) 3.9 01:06:30 10° NW 01:14:13 86° WSW 01:14:48 79° S
CZ-2C R/B 3.9 01:19:47 46° NNE 01:19:47 46° NNE 01:23:36 10° N
Cosmos 1943 Rocket 2.9 01:34:07 47° NE 01:34:07 47° NE 01:38:16 10° NNE
Cosmos 2100 Rocket 4.0 01:37:13 80° N 01:37:13 80° N 01:43:13 10° N
Cosmos 2061 Rocket 4.0 01:40:23 81° NNE 01:40:23 81° NNE 01:46:30 10° N
Cosmos 1802 Rocket 4.0 01:58:40 74° NW 01:58:40 74° NW 02:04:33 10° N
Cosmos 2016 Rocket 3.9 02:01:30 80° N 02:01:30 80° N 02:07:16 10° N
Cosmos 1833 4.4 01:56:15 10° NNW 02:01:05 65° N 02:01:05 65° N
Cosmos 1459 Rocket 4.2 02:05:01 56° WNW 02:05:01 56° WNW 02:10:40 10° N
Cosmos 2098 Rocket 4.2 02:05:21 63° ESE 02:05:39 64° E 02:12:49 10° NNE
Cosmos 1818 4.0 02:12:07 56° NNW 02:12:07 56° NNW 02:16:59 10° NNE
SeaSat 1 3.1 02:13:21 51° NNW 02:13:21 51° NNW 02:17:03 10° NNW
Cosmos 1864 Rocket 4.4 02:20:33 86° SE 02:20:38 87° E 02:26:55 10° N
Cosmos 968 Rocket 4.0 02:19:48 10° NNW 02:23:50 53° NNW 02:23:50 53° NNW
Cosmos 2369 Rocket 4.0 02:25:03 20° WNW 02:26:01 20° NW 02:30:08 10° N
NOSS 3-3 (A) 3.9 02:31:06 72° SE 02:31:14 73° ESE 02:37:50 10° NE
NOSS 3-3 (C) 3.9 02:31:12 71° SE 02:31:20 72° ESE 02:37:56 10° NE
Cosmos 2219 3.2 02:25:59 10° NNW 02:31:37 72° ENE 02:31:46 72° E
Cosmos 1725 Rocket 3.9 02:34:24 72° W 02:34:29 72° W 02:40:41 10° N
Lacrosse 5 rocket 4.0 02:38:03 11° NW 02:38:37 11° NNW 02:39:51 10° N
Cosmos 2208 Rocket 4.2 02:40:15 63° E 02:40:15 63° E 02:45:04 10° NNE
Cosmos 2227 Rocket 4.3 02:35:24 10° N 02:39:56 24° NE 02:44:25 10° ESE
Cosmos 1340 4.4 02:36:36 10° N 02:38:47 31° NNE 02:38:47 31° NNE
Meteor 2-17 Rocket 4.4 02:39:51 67° SE 02:40:27 72° E 02:46:34 10° NNE
Tsikada Rocket 3.9 02:34:19 10° N 02:40:36 74° W 02:40:51 73° WSW
Cosmos 1816 Rocket 4.4 02:34:56 10° N 02:41:14 87° E 02:41:52 74° SSE
CZ-2D R/B 4.4 02:38:04 10° NE 02:41:14 16° E 02:43:30 12° ESE
SL-16 R/B 4.5 02:37:47 10° ESE 02:42:33 24° ENE 02:47:18 10° NNE
Lacrosse 5 4.1 02:45:31 15° WNW 02:47:52 19° NNW 02:51:32 10° NNE
Cosmos 1666 4.2 02:55:17 32° NNW 02:55:17 32° NNW 02:57:30 10° N
Cosmos 1777 Rocket 4.1 02:49:14 10° NNW 02:53:44 63° NW 02:53:44 63° NW
ATLAS 2AS CENTAUR R/B 2.9 02:46:27 10° NW 02:54:26 67° WSW 02:55:56 55° SSW
CBERS-1 4.0 02:52:42 10° NNE 02:57:51 73° ESE 02:58:00 72° ESE
IRS-P3 4.0 02:55:17 10° N 03:00:38 76° WNW 03:00:48 75° W
Cosmos 2297 Rocket 4.2 02:57:27 10° N 03:02:04 25° ENE 03:06:40 10° ESE
ATLAS CENTAUR R/B 3.7 03:03:58 18° ESE 03:04:42 19° ESE 03:08:12 10° ENE
IRAS Rocket 4.1 03:05:22 10° NNE 03:11:01 89° ESE 03:11:52 66° SSW
Cosmos 2228 3.7 03:12:56 46° NW 03:12:56 46° NW 03:16:22 10° N
Cosmos 1656 Rocket 4.5 03:14:54 36° W 03:15:39 38° WNW 03:20:53 10° N
GEOS 3 Rocket 4.4 03:11:21 10° ESE 03:16:22 50° NE 03:21:21 10° NNW
Cosmos 1943 Rocket 4.0 03:15:38 17° WNW 03:16:58 19° NW 03:20:50 10° N
NPP 3.7 03:15:50 10° N 03:21:08 58° WNW 03:21:45 55° WSW
Cosmos 44 Rocket 4.4 03:23:00 10° NW 03:26:03 30° WNW 03:26:03 30° WNW
AQUA 4.0 03:24:39 10° N 03:29:17 54° WNW 03:29:31 53° W
Cosmos 1812 Rocket 3.4 03:29:59 79° WSW 03:30:08 81° W 03:34:39 10° N
SL-8 R/B 3.6 03:26:33 10° WNW 03:31:22 89° NNE 03:36:09 10° SE
Cosmos 468 Rocket 4.3 03:32:14 42° SSE 03:33:42 58° ESE 03:38:47 10° NNE
Resurs 1-4 Rocket 2.8 03:29:49 10° NNE 03:34:55 49° E 03:37:12 30° SSE
Cosmos 1464 Rocket 3.9 03:35:07 44° SSW 03:37:16 82° W 03:43:37 10° N
Cosmos 1707 3.1 03:37:30 10° N 03:41:24 62° E 03:42:16 48° SE
ERS-2 2.8 03:40:13 10° N 03:43:27 44° NW 03:43:27 44° NW
BREEZE-M DEB (TANK) 3.1 03:42:45 10° NW 03:45:38 33° NW 03:45:38 33° NW
NOSS 2-1 (D) 3.2 03:49:20 65° S 03:49:49 77° ESE 03:54:05 10° NE
SL-08 R/B 4.4 03:51:33 28° W 03:51:33 28° W 03:54:59 10° NW
ADEOS 3.8 03:45:56 10° N 03:51:02 54° WNW 03:52:23 42° WSW
NOSS 2-1 (C) 3.2 03:50:37 64° S 03:51:08 77° ESE 03:55:25 10° NE
Cosmos 1898 Rocket 3.6 03:46:18 10° NNW 03:51:41 77° ENE 03:56:35 12° SSE
Okean 3 Rocket 3.5 03:51:05 10° N 03:55:32 85° E 03:57:17 36° S
Meteor 2-5 Rocket 3.7 03:50:13 10° NNW 03:56:03 73° W 03:59:14 29° S
BREEZE-M DEB (TANK) 4.0 03:56:13 15° NW 03:57:45 23° N 04:00:34 10° ENE
SME Rocket 3.9 03:55:33 26° S 03:58:35 79° WSW 04:06:06 10° NNW
BREEZE-M DEB (TANK) 3.7 03:55:47 26° W 03:58:38 49° NW 04:01:27 10° NE
Uosat 12 SS-18 rocket 4.4 03:56:08 10° NW 04:00:52 60° WSW 04:06:31 10° SSE
ISS -0.1 03:59:13 10° NNW 04:01:03 14° NNE 04:02:52 10° NE
GPS 2-04 Rocket1 3.5 04:01:22 33° SSE 04:01:22 33° SSE 04:04:33 10° E
Cosmos 1656 3.8 04:02:20 30° S 04:05:13 76° ESE 04:10:55 10° NNE
NOSS 2-1 (E) 3.3 04:05:12 50° SW 04:06:11 79° WNW 04:10:36 10° NNE
ASTRO E2 3.8 04:07:59 28° SSE 04:07:59 28° SSE 04:11:00 10° ESE
Cosmos 841 Rocket 4.2 04:04:53 20° S 04:08:18 50° ESE 04:13:24 10° NNE
OAO 3 Rocket 4.0 04:09:20 30° S 04:09:20 30° S 04:12:48 10° SE
Cosmos 1937 Rocket 3.5 04:04:15 10° NNW 04:09:26 79° ENE 04:14:38 10° SSE
Cosmos 2082 3.6 04:05:10 10° NNW 04:10:46 68° WSW 04:16:19 10° S
ARIANE 5 R/B 2.8 04:08:27 10° N 04:13:26 53° WNW 04:15:36 31° SW
Cosmos 1697 Rocket 2.9 04:10:26 23° S 04:13:56 66° ESE 04:19:34 10° NNE
NOSS 3-4 (A) 4.2 04:10:02 10° NNW 04:17:02 68° NE 04:24:25 10° SE
NOSS 3-4 (C) 4.2 04:10:08 10° NNW 04:17:10 68° NE 04:24:35 10° SE
Cosmos 1763 Rocket 3.7 04:14:36 23° S 04:17:54 71° ESE 04:23:06 10° NNE
Meteor 2-12 Rocket 4.4 04:15:23 23° SSW 04:19:18 77° W 04:25:22 10° N
Cosmos 44 4.0 04:16:01 10° NW 04:20:27 30° WSW 04:20:52 30° WSW
Cosmos 1980 Rocket 3.1 04:15:59 13° S 04:20:35 44° ESE 04:25:55 10° NE
CZ-2D R/B 2.3 04:16:19 10° N 04:21:43 63° WNW 04:24:49 25° SW
MTI 3.8 04:20:08 24° SSE 04:22:01 83° ENE 04:25:18 10° N
Cosmos 2227 Rocket 2.4 04:18:47 10° NW 04:24:13 48° WSW 04:29:11 12° S
SL-16 R/B 2.7 04:21:04 17° S 04:25:45 53° W 04:31:47 10° NNW
MOS 1-B 4.3 04:20:57 10° N 04:26:45 73° WNW 04:30:49 20° SSW
USA 161 3.9 04:28:29 13° WNW 04:28:29 13° WNW 04:29:01 10° NW
CZ-2D R/B 3.5 04:24:08 10° NNE 04:28:28 89° SE 04:31:25 21° SSW
Cosmos 2322 Rocket 4.5 04:26:10 10° SE 04:30:03 19° E 04:33:55 10° NE
Cosmos 1766 3.4 04:29:22 29° SSW 04:31:10 58° W 04:35:05 10° N
CZ-3 Stage 3 4.4 03:41:50 10° W 04:33:22 63° SSW 04:40:36 10° ESE
IRS-1D 4.2 04:28:52 10° N 04:33:23 36° WNW 04:35:50 23° WSW
Okean O Rocket 1.8 04:30:02 10° NNE 04:34:25 71° E 04:38:15 13° S
Cosmos 1758 3.6 04:32:18 14° S 04:35:42 67° E 04:39:42 10° NNE
Cosmos 405 Rocket 4.1 04:34:11 10° NW 04:37:20 22° W 04:37:50 21° W
BREEZE-M DEB (TANK) 2.9 04:36:45 21° SW 04:40:06 81° NW 04:44:13 10° NE
OE (NEXTSAT) 4.4 04:38:29 28° SW 04:40:15 80° SSE 04:43:53 10° ENE
UNK 4.5 04:39:30 22° SW 04:41:45 33° W 04:45:58 10° NNW
UNKNOWN OBJECT B 3.3 04:39:06 10° N 04:42:49 41° WNW 04:44:48 23° SW
NOSS 7 (D) 4.4 04:41:26 26° SW 04:43:11 67° NW 04:46:34 10° NNE
Cosmos 1953 2.3 04:39:53 15° S 04:43:14 87° E 04:47:19 10° N
ATLAS CENTAUR R/B 2.2 04:40:19 22° SW 04:43:27 54° NW 04:48:23 10° NNE
Cosmos 1743 Rocket 4.1 04:40:55 10° N 04:45:12 59° E 04:49:29 10° SSE
Cosmos 2297 Rocket 2.5 04:40:57 10° NW 04:46:17 45° WSW 04:51:37 10° S
IRS-1C Rocket 4.1 04:41:51 10° NNE 04:47:08 81° WNW 04:52:06 11° SSW
ADEOS II 3.9 04:46:50 10° NE 04:51:26 30° E 04:55:59 10° SSE
USA 81 4.3 04:47:37 10° S 04:52:52 75° E 04:58:09 10° N
Meteor 1-24 Rocket 4.3 04:48:59 10° NNW 04:54:12 39° W 04:59:35 10° SSW
Cosmos 1076 Rocket 3.9 04:51:35 10° NNW 04:55:40 41° W 04:59:41 10° SSW
Nadezhda 4 Rocket 4.5 04:50:10 10° NNW 04:55:52 40° W 05:01:36 10° SSW
Cosmos 540 Rocket 4.2 04:51:53 10° S 04:56:53 52° ESE 05:01:54 10° NNE
SL-16 R/B 3.7 04:55:13 10° SSE 05:00:13 33° ESE 05:05:15 10° NE
PAYLOAD B 4.3 04:56:10 10° N 05:01:48 79° WNW 05:07:22 10° SSW
CZ-2C R/B 3.8 04:59:26 10° S 05:04:05 58° W 05:08:42 10° NNW
Cosmos 1805 3.5 05:04:27 11° SSW 05:08:05 49° W 05:11:55 10° N
Cosmos 1766 Rocket 4.3 05:05:31 10° NNW 05:09:29 34° W 05:13:28 10° SSW
Cosmos 1408 Rocket 4.4 05:05:53 10° NNW 05:09:44 31° W 05:13:36 10° SSW
Cosmos 1378 4.4 05:07:35 10° NW 05:10:39 24° W 05:13:33 11° SW
Okean-O 3.2 05:07:45 10° NNE 05:12:09 58° E 05:16:30 10° S
Milstar 3 Cent rocket 3.6 05:08:38 12° WSW 05:13:45 40° S 05:23:38 10° ESE
Resurs 1-4 Rocket 3.6 05:10:37 10° NNW 05:14:23 20° WNW 05:18:07 10° WSW
Cosmos-2242 3.7 05:12:39 10° SW 05:16:40 36° WNW 05:20:39 10° N
Cosmos 2221 4.4 05:13:46 10° SSE 05:17:33 32° E 05:21:21 10° NNE
Cosmos 1441 Rocket 4.4 05:14:22 10° NW 05:17:43 26° W 05:21:03 10° SSW
CZ-4B R/B 3.4 05:14:07 10° N 05:19:34 57° WNW 05:24:53 10° SSW
MOZ.5/SAFIR/RUBIN 5/SL-8 4.1 05:15:37 10° S 05:20:09 45° W 05:24:40 10° NNW
Meteor 1-21 Rocket 4.4 05:15:08 10° NNW 05:20:58 62° W 05:26:46 10° S
Cosmos 2026 Rocket 4.1 05:21:19 10° NNW 05:27:32 58° W 05:33:39 10° S
CZ-4B R/B 3.4 05:23:49 10° N 05:27:36 40° WNW 05:31:11 10° SW
Cosmos 2227 4.3 05:22:03 10° NNW 05:27:50 83° WSW 05:33:34 10° SSE
Cosmos 1733 3.3 05:24:51 10° S 05:28:38 81° E 05:32:26 10° N
Cosmos 1842 Rocket 3.8 05:24:35 10° SSW 05:28:58 57° W 05:33:25 10° N
PSLV R/B 3.5 05:26:21 10° NNE 05:30:35 87° WNW 05:34:49 10° SSW
BREEZE-M DEB (TANK) 4.1 05:28:00 10° SW 05:42:46 67° SE 05:46:46 10° ENE
CZ-3 R/B 3.4 05:27:12 10° WSW 05:47:39 39° S 05:53:32 10° ESE
